This is the latest recevied weather packets stored in our database for station/object N0QV. If no packets are shown the sender has not sent any weather packets the latest 10 day(s).
| Time | Temp. | Humidity | Pressure | Rain* | Wind** | Luminosity | Snow |
|---|---|---|---|---|---|---|---|
| 1777983930 | 5° C | 61% | 1010.9 hPa | 0 mm | - | 97 W/m² | - |
| 1777983626 | 4.44° C | 61% | 1010.9 hPa | 0 mm | - | 68 W/m² | - |
| 1777983323 | 4.44° C | 63% | 1010.7 hPa | 0 mm | - | 52 W/m² | - |
| 1777983019 | 3.89° C | 63% | 1010.8 hPa | 0 mm | - | 48 W/m² | - |
| 1777982716 | 3.89° C | 67% | 1010.7 hPa | 0 mm | - | 45 W/m² | - |
| 1777982411 | 3.33° C | 70% | 1010.7 hPa | 0 mm | - | 40 W/m² | - |
| 1777982106 | 3.33° C | 68% | 1010.5 hPa | 0 mm | - | 35 W/m² | - |
| 1777981804 | 3.33° C | 68% | 1010.7 hPa | 0 mm | - | 32 W/m² | - |
| 1777981501 | 2.78° C | 66% | 1010.3 hPa | 0 mm | - | 27 W/m² | - |
| 1777981197 | 2.78° C | 66% | 1010.2 hPa | 0 mm | - | 23 W/m² | - |
| 1777980894 | 2.78° C | 67% | 1010.1 hPa | 0 mm | - | 18 W/m² | - |
| 1777980590 | 2.22° C | 68% | 1010.1 hPa | 0 mm | - | 16 W/m² | - |
| 1777980287 | 1.67° C | 69% | 1010.1 hPa | 0 mm | - | 12 W/m² | - |
| 1777979985 | 1.67° C | 70% | 1009.9 hPa | 0 mm | - | 10 W/m² | - |
| 1777979684 | 1.67° C | 71% | 1009.8 hPa | 0 mm | - | 7 W/m² | - |
| 1777979380 | 1.67° C | 71% | 1009.5 hPa | 0 mm | - | 5 W/m² | - |
| 1777979077 | 1.67° C | 71% | 1009.6 hPa | 0 mm | - | 3 W/m² | - |
| 1777978774 | 1.67° C | 72% | 1009.5 hPa | 0 mm | - | 1 W/m² | - |
| 1777978471 | 1.67° C | 72% | 1009.5 hPa | 0 mm | - | 1 W/m² | - |
| 1777978167 | 1.67° C | 72% | 1009.2 hPa | 0 mm | - | 0 W/m² | - |
| 1777977864 | 1.67° C | 71% | 1009.4 hPa | 0 mm | - | 0 W/m² | - |
| 1777977560 | 2.22° C | 71% | 1009.4 hPa | 0 mm | - | 0 W/m² | - |
| 1777977258 | 2.22° C | 70% | 1009.2 hPa | 0 mm | - | 0 W/m² | - |
| 1777976955 | 2.22° C | 69% | 1009.4 hPa | 0 mm | - | 0 W/m² | - |
| 1777976652 | 2.78° C | 67% | 1009.2 hPa | 0 mm | - | 0 W/m² | - |
* Rain latest hour (hover to see other rain measurements)
** Current wind speed in m/s (hover to see current wind gust speed)